Reno, NV

10:18 AM PST on December 15, 2019 (GMT -0800)
Reno-Tahoe International

Weather History for KRNO - August, 2019

Change the Weather History Date:

Friday, August 30, 2019

  Actual Average Record
Temperature  
Mean Temperature 76 °F 70 °F  
Max Temperature 93 °F 87 °F 99 °F (1950)
Min Temperature 58 °F 53 °F 31 °F (1962)
Degree Days  
Heating Degree Days 0 1  
Month to date heating degree days 0 1  
Since 1 June heating degree days 15 62  
Since 1 July heating degree days 0 6  
Cooling Degree Days 10 6  
Month to date cooling degree days 389 253  
Year to date cooling degree days 980 740  
Since 1 June cooling degree days 966 703  
Growing Degree Days 26 (Base 50)    
Moisture  
Dew Point 38 °F    
Average Humidity 31    
Maximum Humidity 62    
Minimum Humidity 9    
Precipitation  
Precipitation 0.00 in 0.00 in 0.41 in (1896)
Month to date precipitation T 0.22  
Year to date precipitation 8.76 4.68  
Snow  
Snow 0.00 in 0.00 in 0.00 in ()
Month to date snowfall 0.0 0.0  
Since 1 June snowfall 0.0 T  
Since 1 July snowfall 0.0 0.0  
Snow Depth 0.00 in    
Sea Level Pressure  
Sea Level Pressure 29.98 in    
Wind  
Wind Speed 4 mph ()    
Max Wind Speed 20 mph    
Max Gust Speed 24 mph    
Visibility 10.0 miles    
Events      
T = Trace of Precipitation, MM = Missing Value Source: Averaged Metar Reports

Daily Weather History Graph

Daily Weather History Graph

Search for Another Location

Airport or City:

Astronomy

Aug. 30, 2019 Rise Set
Actual Time 6:25 AM PDT 7:33 PM PDT
Civil Twilight 5:57 AM PDT 8:00 PM PDT
Nautical Twilight 5:24 AM PDT 8:33 PM PDT
Astronomical Twilight 4:50 AM PDT 9:08 PM PDT
Moon 6:32 AM PDT (8/30) 8:13 PM PDT (8/30)
Length of Visible Light 14h 03m
Length of Day
13h 07m
New Moon, 0% of the Moon is Illuminated
Aug 30
New Moon
Sep 5
First Quarter
Sep 13
Full
Sep 21
Last Quarter
Sep 28
New

Hourly Weather History & Observations

Time (PDT) Temp. Dew Point Humidity Pressure Visibility Wind Dir Wind Speed Gust Speed Precip Events Conditions
12:55 AM 69.1 °F 46.9 °F 45% 29.96 in 10.0 mi NNE 4.6 mph - N/A   Clear
1:55 AM 64.9 °F 46.9 °F 52% 29.97 in 10.0 mi Calm Calm - N/A   Clear
2:55 AM 63.0 °F 46.9 °F 56% 29.98 in 10.0 mi SE 4.6 mph - N/A   Clear
3:55 AM 63.0 °F 48.0 °F 58% 29.99 in 10.0 mi Calm Calm - N/A   Clear
4:55 AM 60.1 °F 46.9 °F 62% 30.00 in 10.0 mi Calm Calm - N/A   Clear
5:55 AM 61.0 °F 46.0 °F 58% 30.01 in 10.0 mi SW 3.5 mph - N/A   Clear
6:55 AM 61.0 °F 44.1 °F 54% 30.04 in 10.0 mi West 3.5 mph - N/A   Partly Cloudy
7:55 AM 64.9 °F 44.1 °F 47% 30.05 in 10.0 mi Calm Calm - N/A   Partly Cloudy
8:55 AM 68.0 °F 44.1 °F 42% 30.05 in 10.0 mi SSE 3.5 mph - N/A   Partly Cloudy
9:55 AM 73.0 °F 44.1 °F 35% 30.03 in 10.0 mi NE 3.5 mph - N/A   Clear
10:55 AM 78.1 °F 43.0 °F 29% 30.01 in 10.0 mi Variable 3.5 mph - N/A   Clear
11:55 AM 81.0 °F 39.0 °F 22% 30.00 in 10.0 mi East 4.6 mph - N/A   Clear
12:55 PM 86.0 °F 35.1 °F 16% 29.97 in 10.0 mi Calm Calm - N/A   Clear
1:55 PM 89.1 °F 30.9 °F 12% 29.96 in 10.0 mi Variable 3.5 mph - N/A   Clear
2:55 PM 91.9 °F 24.1 °F 9% 29.93 in 10.0 mi Variable 6.9 mph 17.3 mph N/A   Clear
3:55 PM 91.9 °F 24.1 °F 9% 29.91 in 10.0 mi WNW 16.1 mph 21.9 mph N/A   Clear
4:55 PM 90.0 °F 26.1 °F 10% 29.92 in 10.0 mi WNW 12.7 mph 21.9 mph N/A   Partly Cloudy
5:55 PM 89.1 °F 28.0 °F 11% 29.91 in 10.0 mi West 15.0 mph - N/A   Partly Cloudy
6:55 PM 86.0 °F 30.0 °F 13% 29.93 in 10.0 mi West 11.5 mph - N/A   Partly Cloudy
7:55 PM 82.0 °F 30.9 °F 16% 29.94 in 10.0 mi WNW 12.7 mph - N/A   Partly Cloudy
8:55 PM 79.0 °F 32.0 °F 18% 29.96 in 10.0 mi NNW 5.8 mph - N/A   Clear
9:55 PM 77.0 °F 33.1 °F 20% 29.98 in 10.0 mi NNW 4.6 mph - N/A   Clear
10:55 PM 75.0 °F 34.0 °F 22% 29.98 in 10.0 mi Calm Calm - N/A   Clear
11:55 PM 69.1 °F 33.1 °F 26% 29.98 in 10.0 mi Calm Calm - N/A   Clear